Skip Page Navigation
NASA JPL Caltech
NASA Logo - Jet Propulsion Laboratory + View the NASA Portal
+ Near-Earth Object (NEO) Program
Search JPL
JPL Home Earth Solar System Stars & Galaxies Technology
JPL Solar System Dynamics
BODIES ORBITS EPHEMERIDES TOOLS PHYSICAL DATA DISCOVERY FAQ SITE MAP
JPL Small-Body Database Browser
Search: [ help ]  
82075 (2000 YW134)
Classification: TransNeptunian Object          SPK-ID: 2082075
Ephemeris | Orbit Diagram | Orbital Elements | Physical Parameters | Discovery Circumstances ]

[ show orbit diagram ]
Orbital Elements at Epoch 2456400.5 (2013-Apr-18.0) TDB
Reference: JPL 11 (heliocentric ecliptic J2000)
 Element Value Uncertainty (1-sigma)   Units 
e .2940977808223555 0.00016079  
a 58.26428872005956 0.016565 AU
q 41.12889070629704 0.0047317 AU
i 19.77917074673418 0.00043706 deg
node 126.94483891074 0.00017468 deg
peri 316.488085822491 0.033005 deg
M 27.64464890522111 0.024689 deg
tp 2443926.358150916854
(1979-Feb-21.85815092)
7.0903 JED
period 162443.4110581812
444.75
69.276
0.1897
d
yr
n .002216156368885047 9.4511e-07 deg/d
Q 75.39968673382208 0.021437 AU
  Orbit Determination Parameters
   # obs. used (total)      77  
   data-arc span      3226 days (8.83 yr)  
   first obs. used      2000-12-26  
   last obs. used      2009-10-26  
   planetary ephem.      DE405  
   SB-pert. ephem.      SB405-CPV-2  
   condition code      3  
   fit RMS      .5229  
   data source      ORB  
   producer      Otto Matic  
   solution date      2012-Aug-06 14:26:37  

Additional Information
 Earth MOID = 40.172 AU 
 T_jup = 6.108 
[ show covariance matrix ]

Ephemeris | Orbit Diagram | Orbital Elements | Physical Parameters | Discovery Circumstances ]

Physical Parameter Table
Parameter Symbol Value Units Sigma Reference Notes
absolute magnitude H 4.7696 mag .66481 11 autocmod 2.5b

82075 (2000 YW134)          Discovered 2000-Dec-26 by Spacewatch at Kitt Peak (691)
Reference: 20040504/Numbers.arcLast Updated: 2004-07-16

Alternate Designations
 2000 YW134 = 2001 XG201 
Ephemeris | Orbit Diagram | Orbital Elements | Physical Parameters | Discovery Circumstances ]
ABOUT SSD CREDITS/AWARDS PRIVACY/COPYRIGHT GLOSSARY LINKS
FirstGov 2013-May-25 04:43 UT
(server date/time)  
NASA Home Page
Site Manager:   Donald K. Yeomans
Webmaster  Alan B. Chamberlin